Terug naar catalogus

COSMOS 1266 FUEL CORE

ActiefLEO
NORAD 12435·DEBRIS·🇷🇺 Russia

Gelanceerd Apr 21, 1981 vanaf Baikonur Cosmodrome

Loading…

Volgende Passages (komende 24 uur)

TLE

VersSource: Space-Track

Epoch: Sep 14, 2026, 16:54 UTC

1 12435U 81037D   26257.70475481 -.00000099  00000-0 -49986-5 0  9993
2 12435  64.7672 240.5054 0027747 232.6220 127.2316 13.93193732308704

Volg COSMOS 1266 FUEL CORE in realtime met AllMySat

Download on the App Store